Vorticity
3 10 8 4 1 1 1 4 5 3 -2 -3 -0 8 13 11 7 5 6 9 10 9 7 3 1 1 3 4 5 6 8 8 7 8 9 10 9 8 9 9 9 10 10 9 10 10 9 10 10 10 9 9 8 8 7 8 10 10 8 8 7 7 7 7 7 6 6 6 6 6 6 5 6 7 7 6 6 7 7 7 8 8 8 8 8
3 12 13 10 3 0 3 4 4 3 0 -2 -4 2 9 10 10 11 11 12 12 11 8 5 2 1 0 3 5 6 8 8 7 9 10 9 9 10 11 10 10 11 12 11 10 9 9 9 9 9 8 7 7 6 8 11 11 10 10 9 10 9 8 8 8 7 6 7 7 7 7 5 4 5 6 7 7 8 8 8 8 9 8 8 7
9 10 12 10 5 9 13 9 9 11 10 8 8 9 11 9 10 18 19 14 8 4 3 6 7 5 2 2 5 6 7 8 9 9 8 9 10 10 10 10 10 11 11 11 10 10 11 12 12 13 13 13 13 12 12 12 11 11 12 12 11 11 11 10 9 10 9 8 8 9 9 8 5 5 6 7 7 7 7 6 7 7 8 9 9
8 8 7 5 8 15 17 8 4 7 9 12 16 17 14 8 5 10 12 4 -2 -0 5 10 12 10 4 1 3 5 8 10 11 8 6 8 8 8 9 11 12 13 13 12 12 13 13 13 13 14 13 13 13 13 12 12 12 12 11 10 10 10 11 10 10 10 9 9 8 7 7 7 6 5 5 6 5 5 5 4 5 6 7 8 9
9 13 9 10 16 16 17 12 6 11 10 8 16 20 18 16 9 5 6 3 3 5 6 10 13 11 6 3 3 6 8 10 9 7 6 7 8 8 9 10 10 10 10 10 11 10 10 10 10 9 8 8 7 6 6 6 8 9 9 9 10 10 10 10 9 8 8 8 8 7 6 6 6 6 5 5 5 5 4 4 4 4 5 6 6
9 15 9 13 19 15 13 9 9 21 12 -1 9 15 15 20 14 4 5 5 5 6 6 9 12 11 7 4 5 8 9 9 8 8 7 6 5 6 5 4 3 2 2 3 3 4 4 3 3 3 1 0 0 2 2 1 2 3 4 6 8 9 10 11 12 10 8 7 7 7 7 7 7 7 7 7 7 6 6 6 7 7 6 6 5
17 15 12 18 19 14 16 11 9 15 6 -1 11 12 9 18 13 4 6 6 6 10 10 10 10 10 8 5 6 7 6 7 8 7 6 4 4 5 4 2 1 -0 -1 -2 -2 0 -0 -2 -1 0 1 1 1 3 3 3 4 4 4 5 7 8 9 10 13 13 11 9 7 6 6 6 5 6 6 7 6 5 5 5 6 6 6 5 4
11 14 18 15 4 -1 10 21 22 19 10 8 14 9 7 13 12 10 13 11 10 11 10 10 9 9 8 6 6 6 5 7 7 6 7 7 8 9 8 4 3 1 -0 -1 0 1 1 1 1 2 3 2 2 4 4 4 4 5 5 4 5 6 6 7 9 10 11 10 9 8 7 7 7 6 5 4 4 4 4 4 5 4 4 4 3
16 26 13 -7 -7 3 14 21 17 7 1 3 10 18 19 11 6 11 16 14 13 10 7 9 8 7 6 5 5 5 5 5 5 5 6 6 5 5 4 3 3 3 3 4 6 8 8 8 7 6 6 5 4 5 5 6 9 9 7 6 5 5 5 7 8 8 9 10 11 12 12 12 13 12 10 9 8 9 8 7 6 5 5 5 5
24 20 -7 -12 14 29 23 16 4 -6 0 7 9 18 25 13 -2 -0 11 16 13 10 7 6 6 5 4 5 6 5 6 6 5 5 4 2 3 2 2 4 4 5 5 5 7 11 14 15 14 13 10 7 7 6 6 10 15 14 11 10 9 8 8 9 8 6 6 7 8 9 9 10 12 11 10 7 7 9 10 8 7 6 6 6 6
17 5 -8 10 30 21 4 1 -1 1 14 16 2 2 17 20 6 -2 7 15 12 10 10 6 5 7 6 7 8 7 8 8 7 7 6 5 6 5 4 5 4 3 4 5 6 9 10 10 8 4 1 1 6 9 10 10 8 5 5 5 4 4 5 5 4 4 6 7 6 5 4 4 4 4 4 3 4 6 7 8 8 8 8 6 6
9 3 2 11 9 -4 -7 1 5 8 14 11 3 8 18 19 9 -3 -1 10 11 9 11 10 7 8 7 8 10 9 9 9 8 8 7 6 6 5 4 4 3 3 3 3 3 3 3 3 2 2 2 3 6 9 9 7 1 -2 0 2 1 -0 -1 2 6 7 6 4 3 4 4 5 4 4 4 4 6 7 7 7 7 7 9 10 8
5 6 8 6 2 0 3 7 8 6 6 2 2 9 6 -2 -5 -8 -1 18 20 8 9 13 11 9 7 5 6 7 7 8 6 4 3 4 5 3 3 5 5 4 3 1 1 1 1 0 -2 -1 2 4 7 7 5 2 1 2 5 6 6 2 -1 2 8 10 7 3 1 2 4 7 8 7 7 6 6 5 6 11 15 15 13 12 8
3 4 6 5 5 5 3 4 4 2 4 4 1 3 0 -4 -0 1 9 23 16 -0 2 9 7 6 6 5 4 3 2 2 1 0 1 3 4 3 4 4 3 2 3 3 2 1 0 -2 -4 -1 5 9 9 6 3 3 3 4 5 6 4 1 0 5 8 8 5 1 -2 -2 2 7 9 9 10 9 10 12 12 15 19 15 7 3 1
1 -0 2 4 6 7 4 3 4 2 3 5 5 7 6 6 8 6 5 6 -2 -7 1 6 4 4 4 5 6 4 3 3 2 2 3 4 4 4 3 4 2 1 2 2 1 -1 -1 -0 4 9 12 11 8 6 6 7 4 5 8 9 6 3 3 7 7 5 3 -0 -1 0 3 8 10 12 13 10 10 13 13 10 7 1 -2 -1 4
9 1 1 5 7 8 5 2 4 6 4 3 4 5 4 5 6 6 5 4 1 2 4 3 4 5 2 3 5 5 5 4 2 3 2 1 1 1 3 4 3 0 0 1 -0 -3 -3 1 9 14 13 10 9 8 5 3 7 12 12 6 3 3 5 8 7 5 3 0 1 4 7 11 15 16 14 10 5 6 9 10 9 7 8 10 11
11 3 2 4 3 3 3 3 5 6 4 4 5 4 3 4 4 4 5 6 6 7 6 4 6 5 2 2 4 3 3 3 3 4 3 1 0 0 1 3 2 0 0 1 -1 -5 -4 2 8 11 8 3 0 -2 -4 -0 9 12 5 -2 1 7 9 9 8 5 5 11 17 19 18 16 13 10 12 13 11 11 12 13 11 10 8 6 5
4 -3 -5 -1 2 3 2 2 3 3 2 3 5 4 4 4 4 4 5 5 6 8 7 7 7 5 4 3 3 2 2 1 2 4 4 5 4 1 1 3 2 -0 0 2 -2 -7 -7 -2 1 4 6 2 -3 -5 -2 4 8 6 1 1 6 11 11 12 11 7 9 15 14 5 2 4 4 7 15 20 18 15 14 10 7 4 1 0 6
7 7 8 13 17 16 11 7 6 5 2 1 2 2 1 0 1 2 3 6 8 9 8 7 7 7 6 4 4 5 3 2 4 4 2 6 8 7 6 5 1 0 5 4 -3 -10 -9 -3 2 5 7 5 3 1 2 5 6 4 4 5 9 12 13 13 11 10 13 13 4 -1 6 14 15 16 18 17 14 13 11 8 5 3 2 8 14
0 6 12 16 19 23 23 22 20 18 15 11 9 7 5 5 7 7 8 8 8 7 6 5 5 5 6 4 3 6 6 7 12 12 8 6 8 9 8 5 5 12 15 2 -15 -17 -9 -1 4 8 9 8 6 5 5 6 6 3 4 10 16 18 17 14 12 14 19 20 19 19 19 14 9 8 9 10 12 13 10 6 4 5 9 15 15
-2 -4 -4 -5 -5 -3 1 4 8 10 12 12 13 14 15 16 16 14 13 12 10 9 8 8 6 6 6 7 8 12 15 16 17 18 16 12 9 8 6 4 6 14 11 -8 -21 -16 -6 2 8 10 11 8 6 5 6 5 5 7 9 17 22 22 22 21 18 16 15 14 15 11 2 -3 1 5 7 9 10 7 3 0 2 7 12 12 9
3 -1 -3 -4 -5 -5 -4 -3 -3 -3 -1 2 5 8 10 10 9 6 5 5 6 6 7 10 11 10 10 11 10 10 14 15 15 15 15 12 10 9 6 4 3 5 3 -5 -9 -5 2 9 13 9 6 6 5 5 5 4 9 16 18 21 22 18 17 16 14 14 14 11 6 0 -4 -1 4 8 13 12 7 3 3 5 9 11 10 9 7
8 7 7 7 9 10 11 10 8 7 7 8 9 9 9 8 7 5 3 2 2 3 2 2 3 3 2 2 1 -1 -1 1 3 4 3 1 2 3 3 4 4 3 2 2 2 4 8 12 13 9 8 9 7 6 7 7 9 12 10 8 7 4 6 9 13 18 19 14 8 6 7 9 11 12 12 6 2 5 10 13 13 9 7 9 8
13 13 13 13 13 12 11 11 11 12 11 11 10 11 11 11 11 10 10 10 10 10 9 8 7 6 4 3 4 5 4 3 3 2 2 1 1 1 4 7 7 7 8 9 10 11 12 12 11 9 9 9 8 8 8 6 6 8 9 10 10 9 8 11 16 17 14 9 6 5 8 12 12 7 1 -2 4 11 12 10 8 6 8 11 7
7 8 8 9 9 8 9 9 9 9 8 7 7 7 7 7 8 8 8 9 9 9 9 10 10 11 11 10 9 9 10 11 10 10 10 9 8 8 7 7 8 10 12 11 11 12 10 9 9 9 9 10 9 8 10 13 18 20 16 10 10 11 9 8 9 5 -2 -5 -5 -3 4 10 8 2 1 6 10 9 6 7 7 8 11 9 4
6 6 6 5 5 5 6 7 7 6 6 6 6 6 6 4 4 4 3 4 4 4 5 5 5 6 6 7 7 6 6 7 8 8 9 9 10 9 8 7 9 10 11 11 10 9 8 8 9 10 11 11 11 13 19 25 27 26 20 10 4 5 6 3 -2 -8 -10 -7 -2 6 13 15 13 10 11 12 10 7 9 11 9 7 6 4 6
8 7 6 6 7 6 6 5 5 5 5 6 5 4 2 1 1 2 3 5 6 7 7 8 9 9 9 9 10 9 8 7 7 7 7 6 6 6 6 7 9 11 14 16 15 13 14 14 14 13 14 15 15 15 12 6 2 7 15 16 12 9 9 7 2 1 3 5 8 12 14 13 12 12 10 6 4 5 6 5 3 3 6 9 11
6 6 7 7 6 4 2 3 4 4 4 4 3 2 2 2 3 5 6 7 8 8 9 9 9 9 9 10 10 10 10 10 10 9 9 8 8 8 8 8 11 18 24 24 22 22 22 22 21 20 19 17 17 18 15 10 9 12 14 13 12 11 10 9 8 10 13 15 18 20 19 16 16 15 12 8 6 6 8 9 10 11 11 11 9
6 5 6 5 4 3 3 4 4 3 3 4 3 3 3 3 5 8 9 9 8 8 8 10 10 10 11 11 11 11 13 14 15 16 15 15 15 15 14 13 16 20 19 12 7 6 7 9 11 15 20 21 21 23 20 14 15 19 14 5 1 6 15 19 19 19 21 23 21 14 6 5 8 10 10 11 13 15 17 15 12 10 8 9 10
5 5 4 4 3 3 2 3 3 3 5 6 6 6 6 6 8 8 8 9 10 10 10 11 12 14 16 17 18 18 18 19 20 21 21 21 21 21 21 20 19 17 12 6 1 1 5 6 3 5 12 16 18 23 25 19 13 11 6 2 5 18 30 33 27 23 21 14 4 -2 -0 8 14 16 16 17 17 18 17 14 12 13 14 17 18
5 5 4 4 4 3 3 4 5 6 6 6 6 7 9 12 13 13 13 13 15 17 19 18 17 17 17 18 20 21 22 22 21 20 21 23 23 22 22 21 19 17 16 13 11 11 14 13 10 8 8 9 16 26 31 24 15 10 10 20 31 33 27 18 13 13 11 5 2 9 19 24 23 21 18 15 14 14 15 16 18 19 19 18 15
8 9 9 9 10 10 10 11 12 14 16 18 20 21 21 22 24 26 28 27 24 23 24 25 24 23 22 21 21 22 25 27 27 26 25 25 25 26 25 23 22 21 19 17 17 16 14 16 17 14 12 19 24 19 10 12 25 34 35 35 32 22 12 10 11 8 3 3 11 20 23 20 17 14 12 12 14 16 15 16 17 17 15 12 8
18 18 19 20 21 23 24 25 26 27 27 27 27 27 27 25 24 25 28 29 28 26 26 27 30 32 32 33 32 32 32 32 32 31 28 27 28 28 27 26 27 26 25 24 23 21 21 21 19 16 20 25 21 11 15 33 42 34 21 14 14 16 17 17 11 4 3 10 17 19 15 11 9 10 13 16 18 17 17 17 15 12 9 7 7
29 29 30 30 29 28 27 26 25 23 23 23 23 23 24 25 25 25 26 27 29 30 29 28 28 28 27 26 25 24 23 22 20 19 18 18 19 19 20 22 20 20 24 29 30 32 30 25 23 26 26 21 18 26 38 37 18 5 10 19 20 17 13 8 5 6 12 16 15 10 7 6 7 11 16 18 17 17 15 13 10 8 7 9 10
24 23 21 20 19 18 19 19 21 22 24 26 26 27 28 28 28 28 26 22 19 19 19 17 14 12 12 11 9 8 8 7 6 5 4 5 7 8 10 11 9 11 16 18 23 33 32 27 31 32 18 15 32 41 28 10 3 10 22 22 14 8 7 8 10 12 13 13 11 9 8 9 11 15 18 18 16 15 11 7 7 9 10 11 11
15 14 15 16 18 20 22 24 26 28 28 27 27 26 25 23 22 21 19 15 12 10 9 7 6 7 9 9 7 5 4 2 2 3 2 2 3 4 4 5 6 9 11 9 14 22 24 29 38 27 5 13 31 15 -11 -3 21 26 16 5 -2 -2 2 6 10 14 14 14 13 12 11 13 15 16 16 13 9 6 6 7 10 11 11 11 12
16 18 21 23 24 25 26 26 26 25 22 21 20 18 16 15 14 12 10 9 8 8 8 9 10 9 9 7 6 6 7 8 10 12 13 14 16 14 10 8 9 9 10 11 12 14 22 37 40 20 5 16 18 -7 -15 11 25 15 9 11 5 -3 -2 5 11 14 11 9 10 12 13 14 13 9 9 8 6 6 8 10 11 11 11 12 14
24 25 25 25 24 23 22 21 19 17 15 14 13 12 9 9 8 8 8 9 9 10 12 12 11 11 12 15 19 22 26 30 32 34 35 36 38 36 30 21 17 17 20 16 8 10 29 43 35 19 20 26 14 -2 5 16 7 -4 4 14 12 10 13 13 9 4 3 7 12 13 12 10 9 9 10 11 10 10 11 11 11 12 12 13 15
25 24 22 21 19 18 17 15 13 12 11 10 9 7 7 8 8 9 11 11 12 14 14 14 17 23 29 33 36 38 40 43 45 47 47 43 44 51 48 30 15 17 23 18 6 12 33 35 16 8 22 27 14 6 9 6 -1 -0 5 10 15 20 19 12 6 7 13 17 17 15 14 13 12 13 13 13 13 14 13 12 11 10 11 13 16
21 19 17 17 15 14 14 12 11 11 10 9 9 9 10 13 13 13 14 14 14 16 18 22 31 37 34 32 35 37 41 49 58 63 62 56 53 56 49 30 16 16 20 14 6 11 26 26 8 -0 8 11 5 5 7 7 11 15 10 8 13 14 9 8 10 14 19 20 16 14 13 12 11 13 12 8 5 5 4 4 4 7 11 16 16
19 18 17 17 16 15 14 13 12 12 12 12 15 15 15 15 14 13 14 15 16 19 24 31 35 30 23 28 35 30 24 31 43 49 50 49 46 39 26 17 18 22 19 12 8 11 18 15 -5 -17 -10 -0 5 10 11 8 11 18 17 16 18 15 12 13 15 14 14 12 7 6 6 6 8 13 11 5 -1 -4 -3 0 4 7 13 16 15
17 17 17 16 15 15 15 15 16 18 18 19 19 17 15 14 13 13 14 14 16 22 26 26 24 21 21 28 31 21 12 16 22 21 21 24 24 19 12 11 19 23 19 12 8 10 17 15 -5 -21 -18 -7 3 15 16 4 -4 -1 5 9 13 15 13 11 10 8 6 3 2 4 5 4 6 10 12 12 10 8 8 10 10 12 14 15 14
12 11 11 11 11 12 14 16 17 18 18 18 16 13 12 12 12 12 12 13 17 24 24 18 16 20 22 19 13 10 15 22 20 12 10 10 9 9 13 20 27 29 26 22 15 10 15 20 13 4 2 -3 -8 -5 -2 -9 -17 -18 -12 -4 6 9 8 8 7 6 5 6 7 7 6 6 9 12 15 16 13 11 12 12 13 15 16 14 14
8 7 8 10 11 11 10 11 11 12 12 13 14 13 12 11 10 11 11 11 15 24 25 17 11 13 15 14 9 5 8 15 19 18 19 17 12 11 17 25 30 28 24 24 24 21 16 14 12 13 18 19 17 15 11 -1 -14 -23 -21 -11 -2 -0 0 6 10 8 7 8 9 9 10 12 14 14 11 4 1 5 10 13 15 17 14 11 13
6 5 6 9 10 7 5 6 7 7 7 9 11 11 11 11 10 10 9 8 12 21 27 25 19 13 9 11 13 8 0 -1 3 9 14 17 16 13 10 12 19 24 24 22 22 24 23 20 17 13 11 12 17 22 24 22 13 4 2 10 15 14 11 11 10 10 11 12 12 14 16 15 13 10 3 -5 -5 2 9 15 18 17 13 11 14
9 8 8 8 7 5 4 6 8 7 6 7 9 10 11 11 11 9 8 7 10 15 20 25 30 30 24 19 19 17 12 4 -2 -2 2 5 7 8 8 5 8 14 20 20 19 19 19 18 17 15 13 12 11 11 12 17 23 25 24 24 22 16 9 1 -3 2 10 13 13 16 17 14 11 6 -0 -4 -2 1 6 15 20 16 11 11 14
10 10 10 11 11 9 7 8 10 10 8 7 7 9 10 11 12 11 8 6 8 12 14 14 17 22 26 26 25 23 22 18 12 11 12 13 12 11 12 10 8 7 9 10 10 12 13 13 12 11 10 12 15 15 14 15 19 20 16 11 8 8 4 -5 -7 2 12 13 12 14 14 10 8 6 4 3 3 2 6 15 18 14 11 12 13
11 12 12 12 11 10 9 10 12 13 11 9 7 7 9 12 14 14 11 6 5 9 14 13 7 3 6 14 20 22 23 22 19 16 16 19 23 23 19 16 15 16 13 9 6 7 11 13 12 9 8 11 17 22 25 24 23 19 10 1 1 5 -0 -12 -13 3 16 14 10 11 12 10 9 8 7 6 4 4 9 15 16 13 12 12 13
11 11 10 9 8 8 8 9 10 12 13 12 9 7 8 10 13 15 15 12 8 6 10 14 13 7 2 4 9 14 19 22 22 20 16 12 14 20 25 26 24 23 21 21 23 28 33 34 30 26 26 28 26 25 25 24 24 25 21 13 8 7 -1 -9 -4 12 19 12 6 7 11 11 9 7 7 6 5 8 12 15 14 12 12 12 12
8 7 6 5 5 6 7 8 8 8 9 9 9 8 9 10 11 13 15 16 14 9 6 9 14 17 16 12 8 11 18 22 24 26 23 14 8 13 23 28 27 22 18 19 24 26 26 26 23 18 16 16 16 16 18 17 18 21 24 24 25 29 30 27 26 24 17 9 7 10 11 10 9 8 7 7 8 10 13 14 12 12 12 12 12
6 6 5 5 5 5 6 7 7 7 7 7 8 8 9 9 10 11 13 16 18 16 11 7 7 11 17 16 11 10 15 20 25 31 30 21 15 18 21 21 21 16 7 4 10 12 7 5 6 5 6 12 20 24 26 26 24 22 21 22 26 31 32 27 20 13 8 8 11 13 12 12 12 10 8 9 11 13 14 13 12 12 12 12 12
Height
5753 5753 5754 5755 5756 5757 5757 5757 5757 5758 5758 5758 5758 5758 5758 5758 5759 5759 5760 5761 5761 5762 5763 5764 5765 5766 5766 5767 5768 5768 5768 5768 5767 5767 5767 5767 5767 5768 5768 5769 5770 5771 5771 5771 5771 5771 5772 5772 5772 5772 5772 5772 5772 5772 5771 5771 5772 5772 5772 5772 5771 5771 5770 5770 5770 5770 5770 5770 5769 5769 5769 5769 5768 5768 5768 5767 5767 5767 5766 5766 5766 5766 5765 5765 5764
5752 5752 5752 5752 5753 5754 5753 5753 5754 5755 5755 5755 5755 5756 5756 5756 5756 5757 5757 5758 5758 5759 5760 5761 5762 5763 5764 5765 5765 5766 5766 5766 5765 5765 5765 5765 5765 5766 5766 5767 5768 5769 5769 5770 5770 5770 5770 5770 5770 5770 5770 5770 5770 5770 5770 5770 5770 5770 5770 5770 5770 5769 5769 5769 5768 5768 5768 5767 5767 5766 5767 5767 5767 5766 5766 5765 5765 5764 5764 5764 5764 5763 5763 5762 5762
5750 5750 5750 5750 5751 5751 5751 5751 5751 5752 5753 5753 5753 5753 5754 5754 5754 5755 5755 5756 5756 5757 5758 5758 5759 5760 5761 5762 5763 5763 5763 5763 5763 5763 5763 5763 5764 5764 5764 5765 5765 5766 5767 5767 5768 5768 5768 5768 5768 5768 5768 5768 5768 5768 5768 5768 5768 5768 5768 5768 5768 5767 5767 5767 5767 5766 5766 5765 5765 5764 5764 5764 5764 5764 5764 5763 5763 5762 5762 5762 5761 5761 5760 5759 5759
5748 5748 5748 5748 5749 5749 5750 5751 5751 5751 5751 5751 5750 5750 5750 5751 5752 5753 5754 5754 5755 5755 5755 5756 5756 5757 5758 5759 5760 5761 5761 5761 5761 5761 5761 5761 5762 5762 5762 5763 5763 5764 5764 5765 5765 5766 5765 5765 5765 5765 5766 5766 5766 5766 5766 5766 5766 5766 5766 5765 5765 5765 5765 5764 5764 5764 5764 5763 5763 5763 5763 5762 5762 5761 5761 5761 5760 5760 5759 5759 5759 5758 5757 5757 5756
5744 5745 5745 5746 5746 5747 5748 5749 5749 5749 5748 5748 5747 5747 5747 5748 5749 5750 5751 5752 5752 5752 5753 5753 5754 5754 5755 5756 5757 5758 5758 5758 5759 5759 5759 5759 5760 5760 5761 5761 5761 5762 5762 5763 5763 5763 5763 5763 5763 5763 5764 5764 5764 5764 5764 5764 5764 5764 5763 5763 5763 5762 5762 5761 5761 5761 5761 5760 5760 5760 5760 5760 5759 5759 5758 5758 5757 5757 5757 5756 5756 5755 5755 5754 5753
5741 5742 5743 5743 5744 5745 5745 5745 5745 5745 5745 5745 5745 5745 5745 5746 5746 5747 5748 5748 5749 5749 5750 5750 5751 5752 5753 5753 5754 5755 5755 5756 5756 5756 5756 5757 5757 5758 5758 5759 5759 5760 5760 5760 5761 5761 5761 5761 5761 5761 5761 5761 5760 5761 5761 5761 5762 5762 5761 5761 5761 5760 5760 5759 5759 5758 5758 5757 5757 5757 5757 5756 5756 5756 5756 5755 5754 5753 5753 5753 5753 5752 5752 5751 5751
5739 5740 5741 5741 5742 5743 5743 5742 5742 5742 5742 5743 5743 5743 5743 5743 5744 5744 5745 5745 5746 5746 5747 5747 5748 5749 5750 5751 5751 5752 5753 5753 5754 5754 5754 5754 5755 5756 5756 5757 5757 5758 5758 5758 5758 5758 5759 5759 5759 5758 5758 5757 5757 5758 5758 5758 5758 5758 5758 5758 5757 5757 5757 5757 5757 5756 5755 5754 5754 5753 5753 5753 5752 5752 5752 5751 5750 5750 5750 5749 5749 5748 5748 5748 5748
5737 5738 5738 5738 5739 5740 5740 5740 5740 5740 5741 5742 5741 5741 5741 5741 5741 5741 5742 5742 5743 5743 5744 5744 5745 5746 5747 5748 5749 5749 5750 5750 5751 5751 5752 5752 5753 5753 5754 5754 5755 5755 5755 5755 5755 5755 5756 5756 5756 5755 5754 5754 5754 5754 5755 5755 5755 5755 5754 5754 5753 5753 5753 5754 5754 5754 5753 5752 5751 5750 5750 5749 5749 5749 5748 5747 5746 5746 5746 5746 5745 5745 5744 5744 5743
5734 5734 5735 5736 5737 5737 5737 5738 5738 5738 5739 5739 5738 5737 5737 5737 5738 5738 5739 5739 5740 5740 5741 5742 5743 5744 5744 5745 5746 5746 5747 5747 5747 5748 5749 5750 5750 5751 5751 5751 5752 5752 5752 5752 5752 5752 5752 5752 5751 5751 5751 5750 5750 5751 5751 5751 5751 5751 5751 5750 5749 5749 5748 5749 5750 5750 5750 5749 5748 5748 5747 5747 5747 5746 5745 5744 5743 5743 5743 5742 5742 5741 5740 5740 5739
5731 5732 5733 5734 5734 5734 5734 5735 5735 5735 5736 5735 5734 5734 5734 5735 5736 5736 5737 5737 5737 5738 5738 5739 5740 5741 5741 5742 5743 5743 5743 5744 5744 5745 5745 5746 5747 5747 5748 5748 5748 5749 5749 5749 5748 5748 5748 5748 5747 5747 5747 5747 5747 5747 5747 5748 5747 5747 5747 5747 5746 5745 5744 5744 5745 5745 5745 5745 5745 5745 5744 5744 5743 5743 5742 5741 5740 5740 5739 5738 5737 5737 5736 5735 5734
5729 5730 5730 5731 5731 5731 5732 5733 5732 5733 5733 5732 5732 5733 5732 5732 5733 5734 5734 5735 5735 5735 5736 5736 5737 5738 5738 5739 5739 5740 5740 5740 5741 5741 5742 5742 5743 5744 5744 5744 5745 5745 5745 5745 5745 5745 5745 5745 5744 5744 5744 5743 5743 5743 5743 5743 5743 5743 5742 5742 5742 5742 5742 5741 5741 5741 5741 5740 5740 5740 5740 5739 5739 5739 5738 5737 5736 5735 5735 5734 5733 5732 5731 5730 5730
5725 5726 5726 5727 5728 5728 5729 5730 5730 5730 5730 5730 5731 5731 5730 5730 5731 5731 5731 5731 5732 5733 5733 5734 5734 5735 5736 5736 5736 5736 5737 5737 5737 5738 5738 5739 5740 5740 5741 5741 5741 5742 5742 5742 5742 5742 5742 5742 5742 5741 5741 5741 5740 5739 5739 5739 5739 5738 5738 5738 5738 5738 5738 5738 5737 5737 5737 5736 5735 5735 5735 5734 5734 5734 5733 5732 5732 5731 5730 5729 5728 5727 5726 5725 5725
5722 5722 5723 5724 5725 5725 5725 5726 5726 5726 5727 5727 5728 5729 5729 5730 5731 5730 5729 5729 5730 5731 5731 5732 5732 5732 5733 5733 5733 5733 5733 5734 5734 5734 5735 5735 5736 5737 5737 5737 5738 5738 5739 5739 5739 5739 5739 5739 5739 5738 5738 5738 5737 5737 5736 5736 5735 5734 5734 5734 5733 5733 5733 5733 5732 5732 5732 5732 5731 5730 5729 5729 5728 5728 5727 5727 5727 5726 5725 5724 5723 5722 5721 5720 5720
5719 5719 5720 5720 5721 5721 5721 5722 5722 5722 5723 5724 5725 5726 5727 5727 5728 5728 5726 5726 5728 5729 5729 5729 5729 5730 5730 5730 5730 5730 5730 5730 5730 5731 5731 5731 5732 5732 5733 5733 5734 5734 5735 5735 5735 5735 5735 5735 5734 5734 5734 5734 5734 5733 5733 5732 5732 5731 5730 5730 5729 5729 5728 5727 5727 5726 5726 5727 5726 5725 5724 5723 5722 5721 5721 5720 5720 5720 5720 5719 5718 5717 5716 5715 5714
5715 5715 5716 5716 5717 5717 5718 5718 5719 5719 5720 5721 5722 5723 5723 5724 5724 5724 5723 5723 5725 5725 5725 5725 5726 5726 5726 5727 5726 5726 5726 5726 5726 5727 5727 5727 5727 5728 5728 5728 5729 5730 5730 5730 5730 5730 5729 5729 5729 5728 5728 5728 5728 5728 5728 5728 5727 5726 5726 5725 5725 5724 5724 5723 5722 5721 5721 5721 5720 5719 5718 5717 5716 5715 5714 5714 5714 5714 5714 5713 5712 5712 5710 5709 5708
5709 5710 5711 5712 5713 5714 5714 5715 5715 5716 5716 5717 5717 5718 5718 5719 5719 5720 5720 5720 5721 5721 5721 5721 5722 5722 5723 5723 5722 5722 5722 5722 5722 5722 5723 5723 5723 5724 5724 5724 5724 5725 5725 5725 5724 5724 5724 5724 5723 5722 5722 5722 5722 5723 5723 5724 5723 5721 5719 5720 5720 5719 5719 5718 5717 5716 5716 5715 5714 5713 5712 5711 5710 5709 5709 5708 5708 5708 5707 5707 5706 5705 5704 5703 5702
5703 5704 5706 5707 5708 5709 5710 5711 5711 5711 5712 5712 5712 5713 5713 5714 5714 5715 5715 5715 5716 5716 5717 5717 5717 5718 5718 5718 5718 5718 5717 5717 5717 5717 5718 5718 5719 5719 5719 5720 5720 5720 5720 5720 5719 5719 5719 5719 5718 5717 5716 5716 5716 5717 5718 5719 5719 5716 5713 5714 5714 5714 5713 5713 5711 5710 5710 5709 5707 5707 5706 5705 5704 5704 5704 5703 5702 5702 5701 5701 5700 5699 5698 5698 5697
5699 5699 5700 5702 5703 5704 5705 5706 5707 5707 5707 5708 5708 5708 5708 5709 5709 5709 5710 5710 5710 5711 5712 5712 5712 5713 5713 5713 5713 5713 5712 5712 5712 5711 5711 5711 5713 5713 5713 5714 5714 5714 5714 5714 5714 5714 5714 5714 5714 5713 5712 5711 5711 5710 5712 5713 5713 5710 5708 5708 5708 5707 5707 5706 5705 5704 5705 5703 5701 5700 5700 5699 5699 5699 5698 5697 5697 5696 5696 5695 5694 5693 5693 5693 5693
5696 5696 5696 5696 5697 5698 5699 5700 5701 5701 5702 5702 5702 5703 5703 5703 5704 5704 5704 5704 5705 5705 5706 5706 5706 5707 5707 5707 5707 5707 5707 5706 5705 5705 5704 5704 5705 5705 5706 5707 5708 5708 5708 5708 5708 5708 5709 5709 5710 5709 5708 5707 5706 5705 5705 5706 5706 5704 5703 5702 5701 5700 5700 5699 5697 5698 5699 5698 5696 5695 5694 5693 5693 5693 5692 5692 5691 5691 5690 5689 5689 5689 5689 5688 5687
5692 5692 5692 5692 5692 5692 5693 5693 5694 5694 5695 5695 5695 5695 5695 5696 5696 5697 5697 5697 5698 5698 5699 5699 5700 5700 5701 5701 5701 5701 5701 5700 5699 5698 5698 5697 5697 5698 5698 5699 5700 5701 5702 5701 5701 5701 5702 5702 5703 5703 5702 5701 5700 5699 5699 5700 5700 5698 5696 5695 5694 5693 5692 5691 5690 5690 5691 5691 5689 5689 5688 5688 5688 5687 5686 5686 5686 5685 5684 5684 5684 5684 5683 5682 5680
5688 5688 5688 5688 5688 5688 5688 5688 5688 5688 5689 5689 5689 5689 5689 5689 5689 5689 5689 5689 5689 5690 5690 5691 5692 5693 5693 5694 5694 5694 5694 5694 5693 5693 5692 5691 5691 5691 5692 5692 5693 5693 5694 5695 5695 5695 5694 5694 5694 5694 5694 5694 5693 5692 5692 5693 5693 5691 5689 5688 5687 5685 5684 5684 5683 5682 5683 5683 5682 5682 5682 5682 5682 5681 5681 5680 5680 5679 5679 5679 5679 5678 5677 5676 5674
5683 5682 5682 5682 5682 5682 5682 5682 5682 5682 5683 5683 5683 5682 5682 5682 5682 5682 5682 5682 5682 5682 5682 5683 5684 5685 5685 5686 5686 5686 5686 5687 5687 5687 5687 5686 5685 5685 5685 5685 5685 5685 5686 5687 5687 5687 5687 5686 5686 5685 5685 5685 5685 5685 5685 5686 5686 5684 5682 5682 5680 5678 5676 5676 5676 5676 5676 5676 5676 5676 5676 5676 5676 5675 5675 5675 5674 5674 5674 5674 5673 5672 5671 5670 5669
5675 5675 5675 5675 5675 5675 5675 5675 5675 5675 5675 5675 5675 5675 5674 5674 5674 5674 5674 5674 5674 5674 5674 5675 5675 5676 5677 5678 5678 5678 5678 5679 5680 5680 5680 5679 5678 5677 5677 5676 5676 5676 5677 5678 5678 5678 5678 5678 5678 5677 5676 5676 5677 5677 5677 5678 5679 5678 5677 5675 5673 5671 5670 5669 5669 5669 5669 5669 5670 5670 5670 5670 5670 5669 5669 5669 5669 5668 5668 5668 5667 5666 5665 5664 5663
5668 5668 5668 5668 5668 5668 5668 5668 5669 5668 5668 5668 5667 5667 5667 5667 5666 5666 5666 5666 5666 5665 5666 5666 5666 5667 5669 5669 5670 5669 5670 5670 5671 5671 5671 5671 5669 5668 5667 5667 5666 5666 5667 5668 5668 5668 5668 5668 5668 5667 5667 5669 5669 5669 5669 5669 5671 5671 5670 5668 5667 5666 5665 5664 5663 5663 5663 5663 5664 5664 5663 5664 5664 5664 5664 5663 5663 5663 5663 5662 5661 5660 5659 5658 5657
5661 5661 5662 5662 5662 5662 5662 5662 5661 5661 5661 5661 5661 5660 5660 5660 5659 5659 5659 5658 5658 5658 5658 5658 5658 5659 5660 5660 5661 5660 5660 5660 5661 5661 5661 5660 5660 5658 5657 5656 5656 5655 5656 5657 5658 5657 5657 5657 5657 5657 5659 5660 5660 5660 5661 5661 5662 5663 5663 5661 5659 5659 5659 5659 5658 5657 5657 5657 5656 5656 5657 5658 5658 5658 5658 5658 5658 5657 5657 5656 5655 5654 5653 5652 5651
5654 5655 5655 5655 5655 5655 5655 5654 5654 5654 5654 5654 5653 5653 5653 5653 5653 5652 5652 5651 5651 5651 5650 5650 5651 5651 5651 5652 5652 5652 5651 5651 5651 5651 5650 5649 5649 5648 5647 5646 5645 5645 5646 5647 5647 5646 5646 5646 5647 5648 5650 5651 5651 5653 5654 5653 5652 5653 5654 5653 5652 5651 5652 5652 5652 5651 5650 5650 5650 5650 5651 5651 5651 5651 5652 5652 5651 5651 5651 5650 5650 5649 5648 5647 5646
5647 5647 5647 5647 5647 5647 5647 5646 5646 5645 5645 5645 5645 5645 5644 5644 5644 5644 5643 5642 5642 5642 5641 5642 5642 5641 5642 5642 5642 5642 5642 5640 5639 5639 5638 5637 5637 5637 5637 5636 5635 5635 5636 5636 5635 5634 5635 5636 5637 5638 5639 5640 5642 5645 5646 5645 5644 5645 5646 5645 5644 5643 5643 5644 5644 5644 5643 5643 5643 5644 5644 5645 5645 5646 5646 5645 5645 5645 5645 5644 5644 5643 5643 5641 5640
5640 5640 5640 5640 5639 5639 5639 5638 5638 5637 5637 5636 5636 5635 5634 5634 5634 5633 5632 5632 5631 5631 5631 5631 5630 5630 5630 5630 5630 5631 5631 5629 5627 5626 5626 5626 5625 5625 5625 5624 5624 5624 5624 5623 5622 5623 5624 5626 5627 5627 5628 5630 5632 5634 5636 5636 5637 5638 5638 5637 5635 5635 5635 5635 5636 5636 5636 5636 5637 5638 5638 5639 5640 5640 5640 5640 5640 5640 5639 5639 5638 5637 5637 5635 5634
5633 5633 5633 5632 5632 5631 5631 5630 5630 5629 5629 5628 5627 5626 5625 5624 5624 5623 5622 5621 5620 5620 5619 5619 5618 5617 5617 5617 5617 5618 5618 5617 5614 5613 5614 5614 5613 5613 5613 5612 5612 5613 5612 5610 5610 5612 5614 5616 5617 5617 5618 5620 5622 5624 5626 5627 5629 5630 5631 5630 5628 5628 5627 5627 5627 5628 5628 5630 5631 5632 5633 5634 5634 5634 5634 5634 5634 5634 5633 5633 5632 5631 5631 5629 5628
5626 5625 5625 5625 5624 5624 5623 5623 5622 5622 5621 5620 5619 5618 5616 5615 5614 5613 5612 5611 5610 5609 5609 5608 5607 5606 5605 5604 5604 5605 5606 5605 5603 5601 5601 5601 5602 5601 5601 5601 5601 5601 5600 5599 5600 5603 5605 5607 5608 5609 5609 5611 5612 5614 5617 5619 5620 5621 5622 5622 5622 5620 5620 5619 5620 5620 5622 5623 5625 5626 5627 5628 5629 5629 5628 5628 5628 5628 5627 5627 5626 5625 5625 5623 5622
5618 5617 5617 5617 5616 5615 5615 5614 5614 5613 5612 5612 5611 5609 5607 5604 5603 5603 5603 5602 5599 5598 5597 5597 5597 5596 5595 5594 5592 5592 5593 5594 5592 5590 5589 5589 5590 5590 5590 5589 5589 5590 5590 5590 5591 5593 5596 5597 5599 5599 5600 5602 5604 5605 5608 5610 5611 5612 5613 5613 5613 5612 5612 5613 5613 5614 5616 5617 5619 5620 5622 5622 5622 5622 5622 5622 5622 5622 5622 5621 5620 5620 5619 5618 5617
5610 5610 5610 5609 5608 5608 5607 5606 5605 5604 5604 5602 5601 5600 5599 5596 5593 5591 5592 5592 5591 5589 5586 5586 5586 5586 5586 5585 5583 5582 5582 5582 5582 5581 5580 5579 5579 5580 5580 5579 5579 5580 5581 5582 5583 5584 5587 5588 5589 5591 5592 5593 5595 5598 5600 5601 5602 5603 5604 5604 5604 5604 5605 5606 5607 5608 5609 5611 5613 5614 5615 5616 5616 5617 5617 5617 5617 5617 5616 5616 5615 5614 5613 5613 5612
5603 5602 5602 5601 5600 5599 5599 5598 5597 5596 5594 5593 5592 5591 5590 5589 5587 5583 5581 5581 5581 5581 5579 5577 5577 5576 5576 5575 5575 5574 5574 5573 5572 5571 5571 5570 5570 5571 5571 5571 5571 5572 5573 5574 5575 5576 5578 5579 5581 5583 5585 5586 5588 5591 5592 5593 5593 5594 5596 5597 5597 5598 5599 5600 5601 5601 5603 5605 5608 5608 5609 5610 5611 5612 5612 5612 5612 5612 5611 5611 5610 5609 5609 5608 5607
5595 5594 5593 5593 5592 5591 5590 5590 5589 5587 5586 5585 5584 5583 5581 5581 5580 5578 5575 5573 5572 5571 5571 5570 5570 5569 5568 5567 5567 5567 5567 5566 5565 5564 5563 5563 5563 5564 5564 5564 5564 5565 5566 5567 5568 5569 5570 5571 5573 5576 5578 5580 5582 5583 5585 5587 5588 5589 5590 5591 5592 5593 5594 5594 5595 5596 5598 5601 5602 5602 5603 5605 5606 5607 5607 5607 5607 5607 5606 5606 5606 5605 5604 5603 5602
5587 5586 5586 5585 5585 5584 5583 5582 5581 5580 5578 5577 5576 5576 5574 5573 5572 5572 5571 5569 5567 5565 5564 5563 5564 5563 5562 5561 5560 5559 5559 5558 5557 5556 5556 5556 5557 5557 5557 5558 5558 5559 5560 5562 5562 5562 5563 5565 5567 5570 5572 5574 5575 5577 5580 5583 5584 5584 5584 5585 5587 5588 5589 5590 5590 5592 5594 5595 5597 5598 5599 5600 5601 5602 5602 5602 5602 5602 5602 5602 5602 5601 5600 5599 5597
5581 5580 5580 5579 5578 5577 5576 5575 5574 5573 5572 5571 5570 5570 5569 5568 5567 5566 5565 5565 5564 5562 5560 5558 5557 5557 5556 5555 5553 5551 5550 5549 5549 5548 5547 5547 5548 5549 5550 5551 5552 5553 5555 5556 5556 5557 5557 5558 5561 5564 5567 5568 5570 5572 5575 5577 5578 5578 5579 5581 5582 5584 5585 5586 5587 5588 5589 5591 5592 5594 5595 5596 5596 5597 5597 5598 5598 5598 5598 5598 5597 5596 5596 5594 5593
5575 5575 5574 5573 5572 5572 5571 5570 5569 5568 5567 5567 5566 5565 5565 5564 5563 5562 5561 5560 5559 5557 5555 5553 5551 5550 5549 5547 5545 5542 5540 5538 5537 5537 5536 5536 5538 5540 5542 5543 5544 5546 5548 5550 5551 5552 5552 5553 5557 5560 5563 5565 5566 5568 5569 5570 5571 5573 5575 5576 5578 5579 5581 5582 5583 5584 5585 5587 5589 5590 5590 5591 5592 5592 5593 5594 5594 5594 5594 5593 5593 5592 5591 5590 5588
5570 5569 5569 5568 5568 5567 5566 5566 5565 5564 5564 5563 5562 5562 5561 5560 5558 5557 5556 5555 5554 5552 5549 5547 5545 5542 5540 5538 5535 5532 5529 5527 5525 5524 5523 5524 5526 5529 5532 5535 5535 5537 5542 5545 5547 5547 5548 5551 5554 5556 5558 5560 5561 5562 5564 5566 5567 5568 5570 5572 5573 5575 5576 5578 5579 5580 5582 5583 5585 5585 5586 5586 5587 5588 5589 5589 5589 5589 5589 5589 5588 5588 5587 5586 5584
5566 5565 5564 5564 5564 5564 5563 5562 5561 5561 5560 5559 5559 5558 5557 5555 5554 5553 5551 5550 5548 5546 5543 5540 5537 5534 5531 5528 5525 5522 5519 5516 5514 5512 5512 5513 5514 5518 5523 5527 5528 5531 5535 5539 5541 5543 5545 5548 5551 5553 5554 5555 5556 5557 5560 5562 5563 5564 5566 5567 5568 5570 5572 5573 5574 5576 5578 5580 5580 5581 5582 5582 5583 5584 5584 5585 5585 5586 5585 5585 5584 5584 5583 5582 5580
5562 5562 5561 5561 5561 5560 5560 5559 5558 5557 5557 5556 5555 5554 5553 5551 5550 5548 5547 5545 5542 5540 5537 5533 5530 5526 5523 5521 5518 5515 5512 5509 5505 5503 5503 5504 5507 5512 5517 5519 5521 5525 5529 5533 5536 5538 5541 5544 5547 5548 5549 5550 5551 5553 5556 5558 5559 5560 5562 5563 5564 5566 5568 5569 5571 5573 5575 5576 5577 5577 5578 5578 5579 5580 5581 5581 5582 5582 5582 5581 5580 5580 5579 5578 5576
5559 5559 5559 5558 5558 5557 5557 5556 5555 5554 5554 5553 5552 5550 5549 5548 5546 5544 5543 5540 5538 5534 5531 5528 5524 5522 5519 5517 5514 5512 5510 5507 5504 5501 5501 5502 5505 5509 5512 5514 5516 5520 5524 5527 5530 5533 5536 5538 5540 5542 5543 5545 5548 5550 5552 5554 5555 5556 5558 5559 5561 5563 5564 5566 5568 5570 5571 5572 5573 5573 5574 5575 5576 5576 5577 5577 5578 5578 5578 5577 5576 5575 5575 5574 5573
5557 5557 5556 5556 5556 5555 5554 5553 5552 5552 5551 5550 5549 5548 5546 5545 5543 5541 5539 5536 5533 5530 5527 5524 5521 5520 5518 5515 5513 5511 5509 5507 5505 5504 5504 5504 5506 5508 5511 5512 5515 5518 5521 5523 5525 5528 5531 5533 5535 5536 5539 5541 5544 5546 5547 5548 5550 5552 5554 5556 5558 5560 5562 5563 5564 5566 5567 5568 5569 5570 5570 5571 5572 5573 5573 5574 5574 5574 5574 5573 5572 5571 5571 5570 5569
5555 5555 5555 5554 5554 5553 5552 5551 5550 5549 5548 5547 5546 5545 5543 5542 5540 5538 5536 5533 5530 5527 5524 5522 5520 5518 5516 5515 5513 5511 5510 5508 5507 5506 5507 5507 5508 5509 5511 5513 5515 5516 5518 5520 5522 5524 5527 5529 5531 5533 5535 5537 5539 5541 5542 5543 5545 5548 5550 5553 5555 5557 5558 5559 5560 5561 5563 5564 5566 5566 5567 5568 5568 5569 5570 5570 5570 5570 5569 5568 5568 5567 5567 5566 5565
5554 5554 5553 5553 5552 5552 5551 5550 5549 5548 5546 5545 5544 5543 5541 5539 5537 5535 5533 5531 5528 5525 5522 5520 5519 5517 5516 5514 5513 5512 5510 5509 5508 5508 5508 5508 5509 5509 5510 5512 5514 5515 5516 5518 5519 5521 5523 5525 5527 5529 5531 5532 5534 5535 5537 5540 5542 5544 5547 5549 5551 5553 5554 5555 5556 5557 5558 5560 5562 5563 5564 5564 5565 5566 5566 5567 5567 5566 5565 5564 5564 5563 5563 5562 5562
5552 5552 5552 5551 5551 5550 5549 5548 5547 5546 5545 5543 5542 5540 5539 5537 5535 5533 5531 5529 5526 5524 5521 5519 5518 5516 5515 5514 5513 5512 5511 5510 5509 5509 5509 5509 5509 5509 5510 5511 5512 5514 5515 5516 5517 5519 5520 5522 5524 5525 5527 5528 5529 5530 5533 5536 5538 5540 5543 5545 5547 5549 5551 5552 5552 5553 5554 5556 5558 5559 5560 5560 5561 5562 5562 5563 5562 5562 5561 5560 5560 5560 5559 5559 5558
5550 5550 5550 5549 5549 5548 5547 5546 5545 5544 5543 5542 5540 5538 5537 5535 5533 5531 5530 5527 5525 5523 5520 5518 5517 5515 5514 5513 5512 5511 5511 5510 5509 5509 5508 5509 5509 5509 5510 5510 5511 5512 5513 5514 5516 5517 5518 5519 5520 5522 5523 5524 5525 5527 5529 5532 5535 5537 5539 5541 5542 5544 5546 5547 5548 5549 5551 5553 5554 5555 5556 5557 5557 5558 5558 5559 5558 5558 5557 5557 5556 5556 5556 5555 5555
5548 5548 5547 5547 5546 5546 5545 5544 5543 5542 5541 5540 5538 5537 5535 5533 5531 5530 5528 5526 5524 5522 5520 5518 5516 5515 5513 5512 5511 5510 5509 5509 5508 5508 5507 5507 5507 5508 5508 5509 5510 5511 5511 5512 5514 5515 5516 5517 5518 5519 5520 5521 5522 5524 5527 5529 5531 5533 5535 5537 5538 5540 5542 5543 5544 5546 5547 5549 5550 5551 5552 5553 5553 5554 5554 5554 5554 5554 5553 5553 5553 5552 5552 5552 5552
5546 5546 5545 5545 5544 5543 5543 5542 5541 5540 5539 5538 5537 5535 5533 5531 5530 5528 5526 5525 5523 5521 5519 5517 5516 5514 5513 5511 5510 5509 5508 5507 5507 5506 5505 5505 5505 5505 5506 5507 5507 5508 5509 5510 5511 5512 5513 5514 5514 5515 5516 5518 5520 5522 5524 5525 5527 5529 5530 5532 5534 5536 5538 5540 5541 5542 5543 5544 5545 5546 5547 5548 5549 5550 5550 5550 5550 5550 5549 5549 5549 5549 5549 5549 5548
5544 5544 5543 5543 5542 5541 5541 5540 5539 5538 5537 5536 5534 5533 5532 5530 5528 5526 5525 5524 5522 5520 5518 5517 5515 5513 5512 5510 5509 5507 5506 5505 5504 5504 5504 5504 5504 5504 5504 5504 5505 5506 5506 5507 5508 5509 5509 5510 5511 5513 5514 5516 5518 5519 5520 5522 5523 5525 5527 5528 5530 5532 5534 5536 5537 5538 5539 5540 5541 5542 5543 5544 5545 5545 5546 5546 5546 5546 5546 5545 5545 5545 5545 5545 5545
5542 5541 5541 5541 5540 5539 5539 5538 5537 5536 5535 5534 5532 5531 5530 5528 5527 5525 5523 5522 5521 5519 5518 5516 5514 5513 5511 5510 5508 5506 5505 5503 5502 5502 5502 5502 5502 5502 5502 5503 5503 5504 5505 5506 5506 5507 5508 5509 5510 5512 5513 5515 5516 5517 5518 5519 5521 5522 5523 5525 5526 5528 5530 5531 5532 5533 5534 5536 5537 5538 5539 5540 5540 5541 5541 5542 5542 5542 5542 5542 5542 5542 5542 5542 5542
5539 5539 5539 5538 5538 5537 5537 5536 5535 5534 5533 5532 5531 5530 5528 5527 5525 5524 5522 5521 5519 5518 5516 5515 5513 5512 5510 5509 5507 5506 5504 5502 5501 5500 5500 5500 5500 5501 5502 5502 5503 5503 5504 5505 5506 5507 5508 5509 5510 5511 5513 5514 5515 5516 5517 5517 5518 5520 5521 5522 5523 5524 5526 5527 5528 5529 5531 5532 5533 5534 5535 5536 5536 5537 5537 5538 5538 5538 5538 5539 5539 5539 5539 5539 5539